Fort Campbell, KY

5:35 PM CST on February 27, 2017 (GMT -0600)
Campbell Army Air Field

Weather History for KHOP - May, 2013

Change the Weather History Date:

Thursday, May 9, 2013

  Actual Average Record
Temperature  
Mean Temperature 69 °F -  
Max Temperature 80 °F 75 °F 86 °F (2007)
Min Temperature 59 °F 55 °F 50 °F (1997)
Cooling Degree Days 4    
Growing Degree Days 19 (Base 50)    
Moisture  
Dew Point 61 °F    
Average Humidity 72    
Maximum Humidity 100    
Minimum Humidity 49    
Precipitation  
Precipitation 0.03 in - - ()
Sea Level Pressure  
Sea Level Pressure 30.02 in    
Wind  
Wind Speed 5 mph (SSW)    
Max Wind Speed 16 mph    
Max Gust Speed -    
Visibility 10 miles    
Events      
Averages and records for this station are not official NWS values.
T = Trace of Precipitation, MM = Missing Value Source: NWS Daily Summary

Daily Weather History Graph

Daily Weather History Graph

Search for Another Location

Airport or City:

Trip Planner

Search our weather history database for the weather conditions in past years. The results will help you decide how hot, cold, wet, or windy it might be!

Date:

Astronomy

May. 09, 2013 Rise Set
Actual Time 5:47 AM CDT 7:45 PM CDT
Civil Twilight 5:19 AM CDT 8:14 PM CDT
Nautical Twilight 4:44 AM CDT 8:48 PM CDT
Astronomical Twilight 4:07 AM CDT 9:25 PM CDT
Moon 5:31 AM CDT (5/9) 7:40 PM CDT (5/9)
Length of Visible Light 14h 54m
Length of Day
13h 57m
Waning Crescent, 0% of the Moon is Illuminated
May 9
Waning Crescent
May 9
New
May 17
First Quarter
May 24
Full
May 31
Last Quarter

Hourly Weather History & Observations

Time (CDT) Temp. Dew Point Humidity Pressure Visibility Wind Dir Wind Speed Gust Speed Precip Events Conditions
12:58 AM 62.6 °F 61.0 °F 94% 30.03 in 10.0 mi Calm Calm - N/A   Clear
1:58 AM 61.0 °F 61.0 °F 100% 30.02 in 10.0 mi Calm Calm - N/A   Clear
2:58 AM 59.9 °F 59.9 °F 100% 30.03 in 10.0 mi Calm Calm - N/A   Scattered Clouds
3:58 AM 61.0 °F 61.0 °F 100% 30.03 in 10.0 mi ESE 2.3 mph - N/A   Overcast
4:58 AM 60.8 °F 60.8 °F 100% 30.03 in 10.0 mi SW 1.2 mph - N/A   Overcast
5:58 AM 60.3 °F 60.3 °F 100% 30.04 in 10.0 mi North 2.3 mph - N/A   Mostly Cloudy
6:58 AM 60.6 °F 60.6 °F 100% 30.06 in 10.0 mi South 2.3 mph - N/A   Scattered Clouds
7:58 AM 64.6 °F 61.9 °F 91% 30.06 in 10.0 mi South 2.3 mph - N/A   Partly Cloudy
8:58 AM 74.3 °F 59.7 °F 60% 30.06 in 10.0 mi SSW 5.8 mph - N/A   Partly Cloudy
9:58 AM 76.8 °F 59.7 °F 55% 30.06 in 10.0 mi SW 8.1 mph - N/A   Clear
10:58 AM 78.6 °F 60.3 °F 53% 30.06 in 10.0 mi SW 12.7 mph - N/A   Scattered Clouds
11:58 AM 78.8 °F 58.3 °F 49% 30.06 in 10.0 mi WSW 16.1 mph - N/A   Mostly Cloudy
12:58 PM 77.2 °F 59.7 °F 55% 30.07 in 10.0 mi WSW 10.4 mph - N/A   Mostly Cloudy
1:10 PM 77.0 °F 60.8 °F 57% 30.06 in 10.0 mi WSW 10.4 mph - N/A   Light Drizzle
1:22 PM 78.8 °F 59.0 °F 51% 30.06 in 10.0 mi WSW 13.8 mph - N/A   Mostly Cloudy
1:26 PM 77.0 °F 59.0 °F 54% 30.06 in 10.0 mi SW 13.8 mph - N/A   Light Drizzle
1:45 PM 71.6 °F 68.0 °F 88% 30.06 in 9.0 mi South 6.9 mph - N/A   Mostly Cloudy
1:58 PM 72.9 °F 68.7 °F 87% 30.05 in 10.0 mi South 8.1 mph - 0.03 in   Mostly Cloudy
2:58 PM 77.5 °F 63.7 °F 62% 29.99 in 10.0 mi SSE 10.4 mph - N/A   Mostly Cloudy
3:58 PM 77.5 °F 62.1 °F 59% 29.98 in 10.0 mi South 11.5 mph - N/A   Partly Cloudy
4:58 PM 79.0 °F 60.4 °F 53% 29.97 in 10.0 mi SSW 16.1 mph - N/A   Mostly Cloudy
5:58 PM 78.3 °F 58.6 °F 51% 29.97 in 10.0 mi SSW 12.7 mph - N/A   Scattered Clouds
6:58 PM 77.5 °F 59.9 °F 54% 29.97 in 10.0 mi SSW 11.5 mph - N/A   Scattered Clouds
7:58 PM 74.3 °F 59.4 °F 60% 29.97 in 10.0 mi South 8.1 mph - N/A   Clear
8:58 PM 72.9 °F 59.9 °F 64% 29.98 in 10.0 mi South 5.8 mph - N/A   Clear
9:58 PM 71.2 °F 60.4 °F 69% 29.97 in 10.0 mi South 8.1 mph - N/A   Clear
10:58 PM 70.0 °F 61.2 °F 73% 29.98 in 10.0 mi South 6.9 mph - N/A   Partly Cloudy
11:58 PM 68.5 °F 61.9 °F 79% 29.99 in 10.0 mi South 4.6 mph - N/A   Partly Cloudy